2016-07-21 00:04:29 r, 18.20m,0000000005Hz,0000104519c,0000000.227s, 030.2C,00002191
2016-07-21 00:14:29 r, 18.08m,0000000005Hz,0000093278c,0000000.202s, 030.2C,00002191
2016-07-21 00:24:29 r, 18.00m,0000000005Hz,0000087500c,0000000.190s, 030.2C,00002191
2016-07-21 00:34:29 r, 17.85m,0000000006Hz,0000075997c,0000000.165s, 030.2C,00002191
2016-07-21 00:44:29 r, 17.84m,0000000006Hz,0000074947c,0000000.163s, 030.2C,00002191
2016-07-21 00:54:29 r, 17.83m,0000000006Hz,0000074280c,0000000.161s, 030.2C,00002191
2016-07-21 01:04:29 r, 17.74m,0000000007Hz,0000068305c,0000000.148s, 029.9C,00002191
2016-07-21 01:14:29 r, 17.78m,0000000006Hz,0000071286c,0000000.155s, 029.9C,00002191
2016-07-21 01:24:29 r, 17.94m,0000000005Hz,0000082426c,0000000.179s, 029.9C,00002191
2016-07-21 01:34:29 r, 17.98m,0000000006Hz,0000085446c,0000000.185s, 029.9C,00002191
2016-07-21 01:44:29 r, 17.91m,0000000006Hz,0000080658c,0000000.175s, 029.6C,00002191
2016-07-21 01:54:30 r, 17.89m,0000000006Hz,0000078841c,0000000.171s, 029.6C,00002191
2016-07-21 02:04:30 r, 17.84m,0000000007Hz,0000075167c,0000000.163s, 029.3C,00002191
2016-07-21 02:14:29 r, 17.93m,0000000006Hz,0000081566c,0000000.177s, 029.3C,00002191
2016-07-21 02:24:29 r, 17.81m,0000000006Hz,0000072806c,0000000.158s, 029.3C,00002191
2016-07-21 02:34:29 r, 18.06m,0000000005Hz,0000092046c,0000000.200s, 029.0C,00002191
2016-07-21 02:44:29 r, 18.10m,0000000005Hz,0000094962c,0000000.206s, 029.0C,00002191
2016-07-21 02:54:29 r, 18.56m,0000000003Hz,0000145603c,0000000.316s, 029.0C,00002191
2016-07-21 03:04:29 r, 18.92m,0000000002Hz,0000201804c,0000000.438s, 028.6C,00002191
2016-07-21 03:14:31 r, 18.95m,0000000002Hz,0000208207c,0000000.452s, 028.6C,00002191
2016-07-21 03:24:29 r, 18.96m,0000000003Hz,0000211144c,0000000.458s, 028.3C,00002191
2016-07-21 03:34:30 r, 18.99m,0000000002Hz,0000216965c,0000000.471s, 028.3C,00002191
2016-07-21 03:44:29 r, 18.99m,0000000002Hz,0000216129c,0000000.469s, 028.3C,00002191
2016-07-21 03:54:30 r, 18.94m,0000000002Hz,0000207181c,0000000.450s, 028.0C,00002191
2016-07-21 04:04:29 r, 18.81m,0000000002Hz,0000183701c,0000000.399s, 028.0C,00002191
2016-07-21 04:14:29 r, 18.52m,0000000003Hz,0000140836c,0000000.306s, 028.0C,00002191
2016-07-21 04:24:29 r, 18.02m,0000000005Hz,0000088159c,0000000.191s, 028.0C,00002191
2016-07-21 04:34:29 r, 17.26m,0000000011Hz,0000044146c,0000000.096s, 028.0C,00002191
2016-07-21 04:44:30 r, 16.26m,0000000026Hz,0000017602c,0000000.038s, 028.0C,00002191
2016-07-21 04:54:29 r, 14.86m,0000000094Hz,0000004849c,0000000.011s, 027.7C,00002191
2016-07-21 05:04:29 r, 13.23m,0000000433Hz,0000000000c,0000000.000s, 027.3C,00002191
2016-07-21 05:14:30 r, 11.59m,0000001956Hz,0000000000c,0000000.000s, 027.3C,00002191
2016-07-21 05:24:30 r, 10.03m,0000008269Hz,0000000000c,0000000.000s, 027.0C,00002191
2016-07-21 05:34:30 r, 08.69m,0000028176Hz,0000000000c,0000000.000s, 027.0C,00002191
2016-07-21 05:44:30 r, 07.69m,0000071349Hz,0000000000c,0000000.000s, 026.7C,00002191
2016-07-21 05:54:30 r, 06.96m,0000140055Hz,0000000000c,0000000.000s, 026.7C,00002191
2016-07-21 06:04:30 r, 06.44m,0000224774Hz,0000000000c,0000000.000s, 026.7C,00002191
2016-07-21 06:14:30 r, 06.08m,0000315082Hz,0000000000c,0000000.000s, 027.0C,00002191
2016-07-21 06:24:29 r, 00.00m,0000401640Hz,0000000000c,0000000.000s, 027.0C,00002191
2016-07-21 06:34:29 r, 00.00m,0000488010Hz,0000000000c,0000000.000s, 027.7C,00002191
2016-07-21 06:44:29 r, 00.00m,0000565575Hz,0000000000c,0000000.000s, 028.6C,00002191
2016-07-21 06:54:29 r, 00.00m,0000595591Hz,0000000000c,0000000.000s, 029.9C,00002191
2016-07-21 07:04:29 r, 00.00m,0000595447Hz,0000000000c,0000000.000s, 031.2C,00002191
2016-07-21 07:14:29 r, 00.00m,0000595205Hz,0000000000c,0000000.000s, 032.5C,00002191
2016-07-21 07:24:29 r, 00.00m,0000595177Hz,0000000000c,0000000.000s, 033.5C,00002191
2016-07-21 07:34:29 r, 00.00m,0000595180Hz,0000000000c,0000000.000s, 034.4C,00002191
2016-07-21 07:44:29 r, 00.00m,0000595021Hz,0000000000c,0000000.000s, 035.1C,00002191
2016-07-21 07:54:29 r, 00.00m,0000594939Hz,0000000000c,0000000.000s, 036.0C,00002191
2016-07-21 08:04:30 r, 00.00m,0000594833Hz,0000000000c,0000000.000s, 036.7C,00002191
2016-07-21 08:14:30 r, 00.00m,0000594656Hz,0000000000c,0000000.000s, 037.7C,00002191
2016-07-21 08:24:29 r, 00.00m,0000594569Hz,0000000000c,0000000.000s, 038.6C,00002191
2016-07-21 08:34:29 r, 00.00m,0000594386Hz,0000000000c,0000000.000s, 039.6C,00002191
2016-07-21 08:44:29 r, 00.00m,0000594352Hz,0000000000c,0000000.000s, 040.6C,00002191
2016-07-21 08:54:30 r, 00.00m,0000594231Hz,0000000000c,0000000.000s, 041.5C,00002191
2016-07-21 09:04:30 r, 00.00m,0000594156Hz,0000000000c,0000000.000s, 042.5C,00002191
2016-07-21 09:14:30 r, 00.00m,0000594040Hz,0000000000c,0000000.000s, 043.1C,00002191
2016-07-21 09:25:43 r, 00.00m,0000593896Hz,0000000000c,0000000.000s, 044.1C,00002191
2016-07-21 09:34:29 r, 00.00m,0000593733Hz,0000000000c,0000000.000s, 045.1C,00002191
2016-07-21 09:44:30 r, 00.00m,0000593544Hz,0000000000c,0000000.000s, 046.0C,00002191
2016-07-21 09:54:29 r, 00.00m,0000593464Hz,0000000000c,0000000.000s, 046.7C,00002191
2016-07-21 10:04:29 r, 00.00m,0000593351Hz,0000000000c,0000000.000s, 048.0C,00002191
2016-07-21 10:14:30 r, 00.00m,0000593204Hz,0000000000c,0000000.000s, 048.3C,00002191
2016-07-21 10:24:30 r, 00.00m,0000593096Hz,0000000000c,0000000.000s, 048.9C,00002191
2016-07-21 10:34:30 r, 00.00m,0000593156Hz,0000000000c,0000000.000s, 049.3C,00002191
2016-07-21 10:44:30 r, 00.00m,0000592911Hz,0000000000c,0000000.000s, 049.9C,00002191
2016-07-21 10:54:30 r, 00.00m,0000592838Hz,0000000000c,0000000.000s, 050.6C,00002191
2016-07-21 11:04:30 r, 00.00m,0000592796Hz,0000000000c,0000000.000s, 050.9C,00002191
2016-07-21 11:14:29 r, 00.00m,0000592735Hz,0000000000c,0000000.000s, 051.2C,00002191
2016-07-21 11:24:30 r, 00.00m,0000592642Hz,0000000000c,0000000.000s, 051.8C,00002191
2016-07-21 11:34:29 r, 00.00m,0000592517Hz,0000000000c,0000000.000s, 052.2C,00002191
2016-07-21 11:47:24 r, 00.00m,0000592470Hz,0000000000c,0000000.000s, 052.2C,00002191
2016-07-21 11:54:30 r, 00.00m,0000592418Hz,0000000000c,0000000.000s, 052.8C,00002191
2016-07-21 12:04:30 r, 00.00m,0000592345Hz,0000000000c,0000000.000s, 053.5C,00002191
2016-07-21 12:14:29 r, 00.00m,0000592284Hz,0000000000c,0000000.000s, 052.8C,00002191
2016-07-21 12:24:30 r, 00.00m,0000592282Hz,0000000000c,0000000.000s, 053.1C,00002191
2016-07-21 12:34:29 r, 00.00m,0000592225Hz,0000000000c,0000000.000s, 052.8C,00002191
2016-07-21 12:44:29 r, 00.00m,0000592216Hz,0000000000c,0000000.000s, 052.8C,00002191
2016-07-21 12:54:29 r, 00.00m,0000592150Hz,0000000000c,0000000.000s, 053.5C,00002191
2016-07-21 13:04:30 r, 00.00m,0000592120Hz,0000000000c,0000000.000s, 053.1C,00002191
2016-07-21 13:14:31 r, 00.00m,0000592089Hz,0000000000c,0000000.000s, 053.5C,00002191
2016-07-21 13:24:29 r, 00.00m,0000591956Hz,0000000000c,0000000.000s, 053.8C,00002191
2016-07-21 13:34:30 r, 00.00m,0000591982Hz,0000000000c,0000000.000s, 053.8C,00002191
2016-07-21 13:44:30 r, 00.00m,0000591998Hz,0000000000c,0000000.000s, 054.1C,00002191
2016-07-21 13:54:30 r, 00.00m,0000591917Hz,0000000000c,0000000.000s, 054.1C,00002191
2016-07-21 14:04:30 r, 00.00m,0000591888Hz,0000000000c,0000000.000s, 054.1C,00002191
2016-07-21 14:14:30 r, 00.00m,0000591862Hz,0000000000c,0000000.000s, 054.4C,00002191
2016-07-21 14:24:30 r, 00.00m,0000591802Hz,0000000000c,0000000.000s, 054.7C,00002191
2016-07-21 14:34:30 r, 00.00m,0000591780Hz,0000000000c,0000000.000s, 054.7C,00002191
2016-07-21 14:44:30 r, 00.00m,0000591871Hz,0000000000c,0000000.000s, 054.4C,00002191
2016-07-21 14:54:30 r, 00.00m,0000591936Hz,0000000000c,0000000.000s, 054.1C,00002191
2016-07-21 15:04:30 r, 00.00m,0000592004Hz,0000000000c,0000000.000s, 054.4C,00002191
2016-07-21 15:14:30 r, 00.00m,0000591996Hz,0000000000c,0000000.000s, 054.4C,00002191
2016-07-21 15:24:30 r, 00.00m,0000591940Hz,0000000000c,0000000.000s, 054.4C,00002191
2016-07-21 15:34:30 r, 00.00m,0000591947Hz,0000000000c,0000000.000s, 054.7C,00002191
2016-07-21 15:44:30 r, 00.00m,0000591998Hz,0000000000c,0000000.000s, 054.4C,00002191
2016-07-21 15:54:30 r, 00.00m,0000592062Hz,0000000000c,0000000.000s, 054.1C,00002191
2016-07-21 16:04:30 r, 00.00m,0000592122Hz,0000000000c,0000000.000s, 053.5C,00002191
2016-07-21 16:14:30 r, 00.00m,0000592188Hz,0000000000c,0000000.000s, 053.5C,00002191
2016-07-21 16:24:30 r, 00.00m,0000592255Hz,0000000000c,0000000.000s, 053.1C,00002191
2016-07-21 16:34:30 r, 00.00m,0000592271Hz,0000000000c,0000000.000s, 052.5C,00002191
2016-07-21 16:44:30 r, 00.00m,0000592399Hz,0000000000c,0000000.000s, 052.5C,00002191
2016-07-21 16:54:30 r, 00.00m,0000592391Hz,0000000000c,0000000.000s, 052.2C,00002191
2016-07-21 17:04:30 r, 00.00m,0000592415Hz,0000000000c,0000000.000s, 051.8C,00002191
2016-07-21 17:14:30 r, 00.00m,0000592490Hz,0000000000c,0000000.000s, 051.5C,00002191
2016-07-21 17:24:30 r, 00.00m,0000592538Hz,0000000000c,0000000.000s, 051.5C,00002191
2016-07-21 17:34:30 r, 00.00m,0000592670Hz,0000000000c,0000000.000s, 051.2C,00002191
2016-07-21 17:44:30 r, 00.00m,0000592781Hz,0000000000c,0000000.000s, 050.2C,00002191
2016-07-21 17:54:30 r, 00.00m,0000592913Hz,0000000000c,0000000.000s, 048.9C,00002191
2016-07-21 18:04:30 r, 00.00m,0000592947Hz,0000000000c,0000000.000s, 048.3C,00002191
2016-07-21 18:14:30 r, 00.00m,0000593069Hz,0000000000c,0000000.000s, 047.7C,00002191
2016-07-21 18:24:30 r, 00.00m,0000593298Hz,0000000000c,0000000.000s, 047.0C,00002191
2016-07-21 18:34:30 r, 00.00m,0000593379Hz,0000000000c,0000000.000s, 046.0C,00002191
2016-07-21 18:44:30 r, 00.00m,0000593486Hz,0000000000c,0000000.000s, 045.4C,00002191
2016-07-21 18:54:30 r, 00.00m,0000593594Hz,0000000000c,0000000.000s, 044.4C,00002191
2016-07-21 19:04:30 r, 00.00m,0000593718Hz,0000000000c,0000000.000s, 043.8C,00002191
2016-07-21 19:14:30 r, 00.00m,0000593821Hz,0000000000c,0000000.000s, 043.1C,00002191
2016-07-21 19:24:30 r, 00.00m,0000593871Hz,0000000000c,0000000.000s, 042.5C,00002191
2016-07-21 19:34:30 r, 00.00m,0000593929Hz,0000000000c,0000000.000s, 042.2C,00002191
2016-07-21 19:44:30 r, 00.00m,0000594036Hz,0000000000c,0000000.000s, 041.2C,00002191
2016-07-21 19:54:30 r, 00.00m,0000594098Hz,0000000000c,0000000.000s, 040.9C,00002191
2016-07-21 20:04:30 r, 00.00m,0000594145Hz,0000000000c,0000000.000s, 039.6C,00002191
2016-07-21 20:14:30 r, 00.00m,0000594426Hz,0000000000c,0000000.000s, 039.6C,00002191
2016-07-21 20:24:30 r, 00.00m,0000564409Hz,0000000000c,0000000.000s, 039.0C,00002191
2016-07-21 20:34:30 r, 00.00m,0000488216Hz,0000000000c,0000000.000s, 038.0C,00002191
2016-07-21 20:44:30 r, 00.00m,0000405842Hz,0000000000c,0000000.000s, 037.7C,00002191
2016-07-21 20:54:30 r, 06.07m,0000316811Hz,0000000000c,0000000.000s, 037.0C,00002191
2016-07-21 21:04:30 r, 06.43m,0000225634Hz,0000000000c,0000000.000s, 036.4C,00002191
2016-07-21 21:14:30 r, 06.96m,0000139800Hz,0000000000c,0000000.000s, 035.7C,00002191
2016-07-21 21:24:30 r, 07.71m,0000069870Hz,0000000000c,0000000.000s, 035.1C,00002191
2016-07-21 21:34:30 r, 08.79m,0000025784Hz,0000000000c,0000000.000s, 034.4C,00002191
2016-07-21 21:44:30 r, 10.15m,0000007351Hz,0000000000c,0000000.000s, 034.1C,00002191
2016-07-21 21:54:30 r, 11.73m,0000001721Hz,0000000000c,0000000.000s, 033.8C,00002191
2016-07-21 22:04:30 r, 13.33m,0000000392Hz,0000000000c,0000000.000s, 033.5C,00002191
2016-07-21 22:14:30 r, 14.97m,0000000087Hz,0000005365c,0000000.012s, 033.5C,00002191
2016-07-21 22:24:31 r, 16.36m,0000000024Hz,0000019273c,0000000.042s, 033.1C,00002191
2016-07-21 22:34:30 r, 17.44m,0000000009Hz,0000051946c,0000000.113s, 033.1C,00002191
2016-07-21 22:44:30 r, 18.33m,0000000004Hz,0000117225c,0000000.254s, 033.1C,00002191
2016-07-21 22:54:31 r, 19.00m,0000000002Hz,0000216091c,0000000.469s, 032.8C,00002191
2016-07-21 23:04:30 r, 19.40m,0000000002Hz,0000312131c,0000000.677s, 032.5C,00002191
2016-07-21 23:14:30 r, 19.56m,0000000001Hz,0000363978c,0000000.790s, 032.2C,00002191
2016-07-21 23:24:31 r, 19.62m,0000000002Hz,0000382914c,0000000.831s, 031.9C,00002191
2016-07-21 23:34:30 r, 19.59m,0000000001Hz,0000374614c,0000000.813s, 032.2C,00002191
2016-07-21 23:44:30 r, 19.55m,0000000001Hz,0000359927c,0000000.781s, 032.2C,00002191
2016-07-21 23:54:31 r, 19.49m,0000000002Hz,0000340721c,0000000.739s, 032.2C,00002191
